Wind_Speed
19 19 20 20 20 20 20 20 20 20 20 20 20 21 21 21 21 22 22 23 23 23 23 24 24 24 24 24 24 24 25 25 26 27 27 27 27 28
21 21 21 21 21 21 21 21 21 21 21 21 22 22 23 23 23 24 24 24 25 25 25 26 26 27 27 27 27 27 28 29 29 30 30 30 30 31
21 21 21 22 22 23 23 23 23 24 24 24 24 24 25 25 26 26 26 26 25 26 27 27 28 28 29 29 29 30 31 31 32 32 32 33 34 34
21 22 22 23 23 23 23 24 24 25 25 25 25 26 26 27 28 28 28 28 28 27 28 28 29 29 30 30 31 32 33 33 33 34 34 35 36 37
22 22 22 22 23 23 24 25 25 25 26 27 28 29 29 29 30 30 30 30 31 31 32 32 32 33 33 33 33 34 35 35 36 36 38 39 39 40
22 23 23 23 23 24 25 26 27 27 28 29 30 31 31 31 32 33 33 33 33 34 34 35 35 36 36 36 36 37 38 38 39 40 40 41 42 43
21 22 23 23 24 24 26 27 28 29 29 30 31 32 32 32 32 34 34 35 34 34 35 35 36 37 38 38 38 39 40 41 41 42 43 43 44 45
20 21 21 23 24 25 26 28 28 28 29 30 31 32 32 32 32 33 34 34 35 36 37 37 38 39 40 40 40 42 42 43 44 45 46 46 46 47
21 22 23 23 24 25 26 27 27 27 29 30 31 31 32 31 32 34 35 36 37 38 39 39 41 41 42 43 44 44 45 46 47 47 48 49 49 50
21 22 23 24 25 25 26 26 27 28 29 31 31 31 31 33 34 35 36 37 37 38 39 40 41 43 44 45 46 46 47 48 49 50 51 52 53 53
21 22 24 24 25 26 27 28 28 28 29 30 31 33 34 35 35 35 36 37 38 40 41 42 43 44 45 46 48 48 49 50 51 52 53 54 54 55
21 22 24 25 26 27 27 28 28 29 30 31 33 34 34 34 35 35 36 37 38 40 41 43 44 45 45 46 48 50 51 51 52 52 53 54 55 55
22 23 24 25 26 27 28 28 29 30 31 32 32 33 34 34 35 36 37 38 39 41 42 43 45 46 46 47 47 49 50 50 51 52 52 53 53 53
22 22 23 24 25 26 27 28 30 30 31 31 32 32 33 34 35 36 37 38 40 41 42 43 44 45 46 46 47 48 49 49 50 50 50 50 51 51
21 23 24 25 26 27 28 29 30 30 30 31 32 32 33 34 35 36 37 39 40 41 43 43 44 45 45 46 46 46 47 47 47 47 46 47 48 48
22 24 25 25 26 27 28 29 30 31 31 32 33 34 35 36 37 38 40 41 42 42 43 44 44 45 44 44 44 44 44 43 44 44 44 44 44 44
24 25 25 26 27 28 29 30 31 32 32 33 34 36 37 37 38 40 40 40 40 41 41 41 42 42 42 42 42 42 41 41 42 42 41 41 40 41
25 25 27 27 28 29 30 31 32 33 34 35 36 36 37 37 38 39 39 40 40 40 40 40 40 40 40 40 40 40 40 40 39 39 39 38 38 39
25 27 28 29 30 30 31 32 33 33 34 35 36 36 36 37 38 39 39 39 39 39 39 39 39 39 39 39 39 39 38 38 37 37 37 37 37 37
27 29 29 30 30 31 31 32 33 33 34 35 35 36 37 38 38 38 38 38 38 38 38 38 38 37 37 37 37 37 37 36 36 36 35 35 35 34
29 30 30 31 31 32 32 33 33 34 35 35 36 37 37 38 38 37 36 36 36 36 36 36 36 35 35 35 35 34 34 34 34 33 32 31 31 30
30 31 31 32 32 32 32 33 33 34 35 35 36 36 37 36 35 35 34 34 34 34 34 34 34 34 33 33 33 32 32 31 31 30 29 28 27 26
30 31 31 31 32 32 32 33 33 33 34 34 34 34 35 34 33 33 33 33 33 33 32 32 32 32 32 31 31 30 30 29 28 28 27 26 26 25
Wind_Direction
247 248 250 254 255 256 258 259 260 261 264 266 266 267 266 268 269 267 268 268 267 268 269 270 272 273 274 275 276 276 276 276 277 278 278 277 276 275
249 251 253 256 257 258 258 260 261 262 264 268 269 269 266 267 268 271 271 270 271 271 270 271 272 273 274 276 275 275 277 277 278 278 278 277 278 277
252 252 254 257 258 259 262 263 264 264 265 268 268 269 268 268 267 269 270 271 273 274 273 273 273 273 274 274 274 275 276 277 276 277 277 277 277 277
254 256 257 260 261 261 264 266 267 266 266 268 269 271 271 271 270 268 268 269 272 272 273 274 274 274 274 275 275 275 275 275 275 275 276 277 277 278
256 259 261 264 264 263 266 267 269 269 270 270 271 272 272 271 271 269 267 268 270 272 273 273 274 275 274 273 275 276 276 277 276 277 278 278 278 277
259 259 261 263 265 265 266 269 272 273 273 273 273 275 274 273 271 271 269 269 271 273 272 273 274 274 273 273 275 277 277 277 278 278 279 280 279 279
260 260 262 264 266 268 270 274 275 275 274 274 274 276 276 274 272 272 273 272 272 273 273 273 273 273 273 273 275 277 277 278 278 279 279 278 279 279
264 264 267 270 271 273 275 277 277 277 276 276 277 277 277 275 274 274 274 274 274 274 274 274 274 274 274 275 276 277 277 277 278 278 279 279 279 279
267 266 268 272 274 276 278 279 277 277 277 277 277 279 279 277 277 277 277 276 277 276 275 276 276 277 276 276 276 277 276 276 277 278 278 278 279 278
268 268 269 271 273 277 279 279 278 279 279 279 278 279 280 281 280 279 279 279 279 277 276 278 277 277 277 277 277 277 278 278 278 279 278 278 279 278
272 272 272 275 276 278 279 280 280 280 281 281 281 282 281 281 281 280 280 280 281 280 279 280 280 280 280 281 281 280 280 280 281 281 281 280 280 279
278 277 277 278 280 280 281 281 282 284 285 285 284 283 283 282 282 283 283 283 282 282 281 283 283 283 282 282 282 282 281 281 282 282 281 281 280 280
281 282 281 281 282 283 284 285 285 286 286 286 286 286 286 285 285 285 285 285 285 284 284 284 284 283 283 284 284 284 284 283 283 283 282 282 281 280
285 285 285 286 287 287 287 287 287 288 289 289 289 290 289 288 287 287 287 287 287 287 286 286 286 285 285 287 286 286 286 285 286 285 283 282 282 281
289 288 287 288 289 289 289 290 292 293 292 292 291 291 291 290 290 290 290 290 290 290 289 289 289 289 288 288 288 288 287 287 287 286 286 285 284 283
291 291 292 292 292 291 292 293 294 294 293 292 292 292 292 292 291 291 292 292 292 292 292 292 291 291 291 291 291 291 290 290 289 289 289 289 288 287
293 293 293 294 294 294 294 295 295 295 294 294 294 294 294 294 293 293 294 294 294 293 293 293 293 294 293 293 292 292 292 291 291 290 291 291 290 289
292 293 294 295 295 295 295 295 295 295 294 295 295 296 296 296 296 296 296 296 296 295 295 295 295 296 296 296 295 294 294 293 293 292 292 292 292 292
295 296 297 296 296 296 296 296 296 296 296 296 297 297 297 297 297 297 297 297 297 297 297 297 296 296 296 296 296 295 295 294 294 294 294 294 294 294
297 297 297 297 297 297 297 297 297 297 297 298 299 299 299 299 300 299 299 298 299 299 299 299 299 298 298 298 298 298 297 296 295 296 295 295 296 296
296 297 297 297 297 297 297 298 298 298 299 299 300 300 301 302 302 301 301 301 301 302 302 302 302 302 301 300 300 300 299 298 297 297 296 296 297 297
297 298 298 298 297 297 298 298 298 299 300 301 302 303 304 304 304 303 303 304 304 304 304 304 304 304 303 302 302 301 301 301 300 300 299 299 299 299
298 299 300 299 299 299 299 300 300 302 303 304 304 305 306 306 306 305 305 306 307 307 306 306 306 306 305 304 304 304 303 303 302 302 303 303 303 302
Height
5874 5874 5875 5875 5876 5876 5877 5877 5878 5877 5877 5877 5876 5876 5875 5874 5874 5873 5873 5872 5871 5870 5869 5869 5868 5867 5866 5865 5864 5863 5862 5861 5860 5858 5857 5856 5854 5853
5869 5870 5870 5871 5871 5871 5871 5872 5872 5872 5872 5872 5871 5870 5869 5869 5868 5868 5867 5866 5865 5864 5863 5862 5861 5860 5859 5858 5857 5856 5855 5854 5852 5851 5849 5848 5847 5845
5864 5865 5865 5865 5866 5866 5866 5866 5866 5866 5866 5866 5865 5864 5863 5862 5862 5861 5860 5859 5858 5857 5856 5855 5854 5853 5852 5850 5849 5848 5847 5846 5844 5842 5841 5840 5838 5837
5858 5859 5860 5860 5860 5860 5860 5860 5860 5859 5860 5859 5858 5858 5857 5856 5855 5854 5853 5852 5851 5850 5849 5847 5846 5845 5843 5842 5841 5839 5838 5836 5835 5833 5832 5830 5829 5827
5853 5854 5854 5854 5854 5854 5854 5854 5853 5853 5852 5852 5851 5850 5849 5848 5847 5846 5845 5844 5842 5842 5840 5839 5838 5836 5835 5833 5831 5830 5828 5827 5825 5824 5822 5820 5818 5816
5847 5848 5848 5848 5848 5848 5848 5847 5847 5846 5845 5844 5843 5842 5841 5840 5839 5837 5836 5835 5834 5833 5831 5830 5828 5827 5825 5823 5822 5820 5818 5816 5815 5813 5811 5809 5807 5805
5841 5842 5842 5842 5842 5841 5841 5840 5839 5839 5838 5837 5836 5834 5833 5831 5830 5828 5827 5825 5824 5823 5821 5820 5818 5816 5815 5813 5811 5810 5807 5805 5803 5801 5799 5797 5794 5792
5836 5836 5836 5835 5835 5835 5834 5833 5832 5831 5830 5829 5827 5826 5824 5822 5821 5819 5818 5816 5815 5814 5811 5809 5808 5806 5804 5802 5800 5798 5796 5794 5791 5789 5786 5784 5781 5779
5830 5830 5830 5830 5829 5828 5827 5826 5825 5824 5823 5821 5819 5817 5815 5813 5811 5810 5808 5806 5804 5802 5801 5799 5797 5794 5792 5790 5788 5785 5783 5781 5778 5776 5773 5770 5768 5765
5824 5824 5824 5823 5823 5822 5821 5819 5817 5816 5814 5812 5811 5809 5806 5804 5802 5800 5798 5796 5793 5792 5790 5788 5785 5783 5780 5777 5774 5772 5769 5766 5764 5761 5758 5755 5752 5749
5818 5818 5817 5817 5816 5815 5813 5812 5810 5808 5806 5804 5802 5800 5797 5795 5792 5790 5787 5785 5782 5780 5778 5776 5773 5770 5767 5764 5761 5758 5755 5752 5748 5745 5742 5738 5735 5732
5812 5811 5811 5810 5809 5807 5805 5803 5802 5800 5798 5795 5793 5790 5787 5785 5782 5779 5777 5774 5772 5769 5767 5764 5760 5757 5754 5751 5747 5743 5740 5736 5733 5729 5725 5722 5718 5715
5807 5805 5804 5802 5801 5799 5797 5795 5793 5791 5788 5786 5783 5780 5777 5774 5772 5769 5766 5763 5760 5757 5755 5751 5748 5744 5741 5737 5733 5729 5725 5721 5717 5713 5709 5705 5701 5698
5801 5799 5797 5796 5794 5792 5789 5787 5784 5782 5779 5776 5773 5770 5767 5764 5761 5758 5755 5752 5749 5745 5741 5738 5735 5731 5727 5723 5719 5714 5710 5706 5701 5697 5693 5689 5685 5682
5794 5792 5790 5788 5786 5784 5781 5779 5776 5773 5770 5767 5764 5761 5758 5754 5751 5747 5744 5740 5736 5733 5729 5725 5721 5717 5713 5709 5705 5700 5696 5691 5687 5683 5679 5675 5671 5667
5788 5786 5784 5781 5779 5776 5773 5770 5767 5764 5761 5757 5754 5751 5747 5744 5740 5736 5732 5728 5724 5720 5716 5712 5708 5703 5699 5694 5690 5686 5682 5678 5673 5669 5665 5661 5656 5652
5782 5779 5777 5774 5771 5768 5765 5761 5758 5755 5751 5748 5744 5740 5737 5733 5729 5724 5720 5716 5712 5707 5703 5699 5694 5690 5686 5682 5677 5673 5669 5665 5660 5656 5652 5649 5644 5640
5774 5772 5769 5766 5763 5759 5756 5753 5749 5746 5742 5738 5734 5730 5726 5721 5717 5713 5708 5704 5700 5695 5691 5687 5683 5678 5674 5669 5665 5661 5657 5652 5648 5644 5640 5637 5633 5629
5767 5764 5760 5757 5754 5751 5747 5744 5740 5736 5732 5728 5724 5720 5715 5711 5706 5702 5697 5692 5688 5684 5679 5675 5671 5667 5663 5658 5654 5649 5645 5641 5637 5633 5630 5626 5622 5618
5759 5755 5752 5749 5745 5742 5738 5734 5730 5726 5722 5718 5714 5709 5705 5700 5695 5690 5686 5681 5677 5672 5668 5664 5660 5655 5651 5648 5643 5638 5634 5630 5626 5623 5619 5615 5612 5608
5750 5747 5743 5740 5736 5733 5729 5725 5721 5717 5713 5708 5704 5699 5694 5689 5684 5680 5675 5671 5666 5662 5658 5653 5649 5645 5641 5637 5633 5628 5624 5620 5616 5613 5609 5606 5603 5599
5741 5738 5734 5731 5727 5723 5719 5715 5711 5707 5703 5698 5694 5689 5684 5679 5674 5670 5665 5661 5657 5652 5648 5644 5639 5635 5631 5627 5623 5619 5615 5611 5607 5603 5600 5597 5594 5591
5732 5729 5725 5721 5717 5714 5710 5706 5702 5697 5693 5689 5684 5679 5675 5670 5665 5661 5656 5652 5648 5643 5639 5635 5630 5626 5622 5618 5614 5610 5606 5603 5599 5596 5593 5589 5586 5583